Location: Trani
(41.2830°N, 16.4170°E)
Time: 01:46:53
(UTC+02:00)

ISS - Pass Details

Date: 20 May 2021
Orbit: 417 x 422 km, 51.6° (Epoch: 14 June)

Event Time Altitude Azimuth Distance (km) Brightness Sun altitude
Rises 21:18:21 0° 273° (W) 2,359 1.0 -11.3°
Reaches altitude 10° 21:20:48 10° 290° (WNW) 1,498 0.3 -11.6°
Maximum altitude 21:23:26 21° 342° (NNW) 1,008 -1.0 -12.0°
Drops below altitude 10° 21:26:04 10° 33° (NNE) 1,503 -0.8 -12.4°
Sets 21:28:32 0° 51° (NE) 2,370 0.0 -12.7°
